Date String (YYYY-MM-DD hh:mm:ss) UTC,Instrument flags,Ambient pressure (hPa),Sample flow (lpm),Bypass flow (lpm),Sample temperature (°C),Ambient temperature (°C),ASC tube jacket temperature (°C),LED temperature (°C),Box temperature (°C),Sample RH (%),Span deviation,Mass concentration (μg/m³),Mass concentration (μg/m³),Mass concentration (μg/m³)
DateTimeUTC,F1_M11,P_M11,Q1_M11,Q2_M11,T1_M11,T2_M11,T3_M11,T4_M11,T5_M11,U1_M11,ZSPAN_M11,X2_M11,X0_M11,X1_M11
2022-02-05 15:00:00,,0826.7,5.01,0.00,22.0,21.6,00.0,30.9,23.7,05.8,0000.0,0000.56,0002.42,0000.40
2022-02-05 15:01:00,,0826.6,4.99,0.00,22.0,21.5,00.0,30.9,23.6,05.8,0000.0,0000.57,0002.48,0000.40
2022-02-05 15:02:00,,0826.7,5.00,0.00,21.9,21.4,00.0,30.9,23.6,05.8,0000.0,0000.56,0002.44,0000.40
2022-02-05 15:03:00,,0826.7,5.01,0.00,21.9,21.4,00.0,30.9,23.6,06.3,0000.0,0000.54,0002.13,0000.40
2022-02-05 15:04:00,,0826.5,4.99,0.00,21.9,21.3,00.0,30.9,23.6,06.0,0000.0,0000.53,0001.14,0000.39
2022-02-05 15:05:00,,0826.5,5.01,0.00,21.9,21.3,00.0,30.9,23.6,06.1,0000.0,0000.53,0001.14,0000.39
2022-02-05 15:06:00,,0826.6,5.01,0.00,21.9,21.3,00.0,30.9,23.6,06.4,0000.0,0000.54,0001.14,0000.39
2022-02-05 15:07:00,,0826.6,5.00,0.00,21.9,21.3,00.0,30.9,23.6,06.3,0000.0,0000.54,0001.15,0000.38
2022-02-05 15:08:00,,0826.6,5.00,0.00,21.9,21.3,00.0,30.9,23.6,06.3,0000.0,0000.54,0001.06,0000.38
2022-02-05 15:09:00,,0826.6,5.00,0.00,21.9,21.3,00.0,30.9,23.6,06.5,0000.0,0000.53,0000.85,0000.38
2022-02-05 15:10:00,,0826.5,5.00,0.00,21.9,21.3,00.0,30.9,23.6,06.5,0000.0,0000.53,0000.85,0000.39
2022-02-05 15:11:00,,0826.5,5.01,0.00,21.9,21.3,00.0,30.9,23.6,07.0,0000.0,0000.52,0000.77,0000.39
2022-02-05 15:12:00,,0826.6,4.99,0.00,21.9,21.2,00.0,30.9,23.6,06.9,0000.0,0000.50,0000.72,0000.39
2022-02-05 15:13:00,,0826.6,5.00,0.00,21.9,21.2,00.0,30.9,23.6,06.7,0000.0,0000.50,0000.71,0000.38
2022-02-05 15:14:00,,0826.5,5.00,0.00,21.9,21.2,00.0,30.8,23.6,06.8,0000.0,0000.52,0000.76,0000.38
2022-02-05 15:15:00,,0826.5,4.98,0.00,21.8,21.2,00.0,30.8,23.5,06.8,0000.0,0000.51,0000.73,0000.38
2022-02-05 15:16:00,,0826.5,5.01,0.00,21.8,21.1,00.0,30.8,23.5,06.8,0000.0,0000.53,0000.87,0000.38
2022-02-05 15:17:00,,0826.6,5.00,0.00,21.8,21.1,00.0,30.8,23.4,06.5,0000.0,0000.53,0001.15,0000.39
2022-02-05 15:18:00,,0826.6,5.00,0.00,21.8,21.5,00.0,30.8,23.5,07.1,0000.0,0000.52,0002.65,0000.39
2022-02-05 15:19:00,,0826.6,5.00,0.00,22.0,22.5,00.0,30.9,23.8,07.1,0000.0,0000.51,0002.63,0000.38
2022-02-05 15:20:00,,0826.6,5.00,0.00,22.1,23.2,00.0,30.9,24.1,06.9,0000.0,0000.52,0002.68,0000.39
2022-02-05 15:21:00,,0826.6,5.01,0.00,22.2,23.1,00.0,31.0,24.2,06.9,0000.0,0000.58,0002.87,0000.39
2022-02-05 15:22:00,,0826.6,4.98,0.00,22.3,22.9,00.0,31.0,24.2,06.7,0000.0,0000.58,0002.88,0000.39
2022-02-05 15:23:00,,0826.6,5.01,0.00,22.3,22.6,00.0,31.0,24.2,06.8,0000.0,0000.56,0002.84,0000.39
2022-02-05 15:24:00,,0826.6,5.00,0.00,22.3,22.5,00.0,31.0,24.1,06.9,0000.0,0000.55,0002.82,0000.38
2022-02-05 15:25:00,,0826.6,5.00,0.00,22.3,22.3,00.0,31.1,24.1,06.6,0000.0,0000.54,0002.77,0000.39
2022-02-05 15:26:00,,0826.6,5.01,0.00,22.3,22.2,00.0,31.1,24.1,06.3,0000.0,0000.53,0002.75,0000.39
2022-02-05 15:27:00,,0826.7,4.98,0.00,22.3,22.1,00.0,31.1,24.0,06.3,0000.0,0000.51,0002.63,0000.40
2022-02-05 15:28:00,,0826.6,5.00,0.00,22.3,22.0,00.0,31.1,24.0,06.7,0000.0,0000.51,0002.50,0000.40
2022-02-05 15:29:00,,0826.5,5.02,0.00,22.3,21.8,00.0,31.1,24.0,06.4,0000.0,0000.53,0000.85,0000.40
2022-02-05 15:30:00,,0826.6,4.99,0.00,22.2,21.7,00.0,31.1,23.9,06.3,0000.0,0000.54,0000.88,0000.40
2022-02-05 15:31:00,,0826.6,5.00,0.00,22.2,21.7,00.0,31.1,23.9,06.8,0000.0,0000.53,0000.82,0000.40
2022-02-05 15:32:00,,0826.6,5.00,0.00,22.2,21.7,00.0,31.1,23.9,07.0,0000.0,0000.47,0000.80,0000.40
2022-02-05 15:33:00,,0826.6,4.99,0.00,22.2,21.6,00.0,31.1,23.9,06.8,0000.0,0000.46,0000.85,0000.39
2022-02-05 15:34:00,,0826.7,5.01,0.00,22.2,21.6,00.0,31.1,23.9,06.8,0000.0,0000.48,0000.89,0000.39
2022-02-05 15:35:00,,0826.7,4.99,0.00,22.2,21.6,00.0,31.1,23.9,07.0,0000.0,0000.52,0000.99,0000.40
2022-02-05 15:36:00,,0826.6,5.00,0.00,22.2,21.6,00.0,31.1,23.9,06.9,0000.0,0000.53,0001.14,0000.40
2022-02-05 15:37:00,,0826.6,5.01,0.00,22.1,21.5,00.0,31.1,23.8,06.5,0000.0,0000.53,0001.14,0000.40
2022-02-05 15:38:00,,0826.5,4.99,0.00,22.1,21.5,00.0,31.1,23.8,06.4,0000.0,0000.55,0001.17,0000.40
2022-02-05 15:39:00,,0826.5,5.01,0.00,22.1,21.4,00.0,31.1,23.7,06.5,0000.0,0000.57,0001.32,0000.41
2022-02-05 15:40:00,,0826.5,4.99,0.00,22.1,21.4,00.0,31.1,23.7,06.6,0000.0,0000.58,0001.37,0000.41
2022-02-05 15:41:00,,0826.5,5.02,0.00,22.0,21.4,00.0,31.1,23.7,06.5,0000.0,0000.58,0001.37,0000.41
2022-02-05 15:42:00,,0826.4,4.99,0.00,22.0,21.4,00.0,31.1,23.7,06.4,0000.0,0000.60,0001.48,0000.41
2022-02-05 15:43:00,,0826.5,5.00,0.00,22.0,21.3,00.0,31.1,23.7,06.5,0000.0,0000.60,0001.44,0000.40
2022-02-05 15:44:00,,0826.4,5.02,0.00,22.0,21.3,00.0,31.1,23.7,06.9,0000.0,0000.59,0001.40,0000.40
2022-02-05 15:45:00,,0826.3,4.99,0.00,22.0,21.3,00.0,31.0,23.7,06.9,0000.0,0000.59,0001.58,0000.40
2022-02-05 15:46:00,,0826.2,5.02,0.00,22.0,21.3,00.0,31.0,23.7,06.7,0000.0,0000.56,0001.55,0000.40
2022-02-05 15:47:00,,0826.2,5.00,0.00,22.0,21.3,00.0,31.0,23.7,06.7,0000.0,0000.58,0001.43,0000.40
2022-02-05 15:48:00,,0826.2,4.99,0.00,22.0,21.2,00.0,31.0,23.6,06.9,0000.0,0000.60,0001.45,0000.41
2022-02-05 15:49:00,,0826.1,5.01,0.00,21.9,21.2,00.0,31.0,23.6,07.1,0000.0,0000.59,0001.43,0000.41
2022-02-05 15:50:00,,0826.1,4.99,0.00,21.9,21.2,00.0,31.0,23.6,06.7,0000.0,0000.57,0001.36,0000.41
2022-02-05 15:51:00,,0826.1,5.00,0.00,21.9,21.1,00.0,31.0,23.5,06.9,0000.0,0000.53,0001.24,0000.40
2022-02-05 15:52:00,,0826.1,5.01,0.00,21.9,21.1,00.0,31.0,23.5,06.7,0000.0,0000.54,0001.25,0000.40
2022-02-05 15:53:00,,0826.1,4.99,0.00,22.0,21.8,00.0,31.0,23.7,06.9,0000.0,0000.53,0001.20,0000.40
2022-02-05 15:54:00,,0826.1,5.00,0.00,22.1,22.6,00.0,31.0,24.0,07.2,0000.0,0000.56,0001.13,0000.41
2022-02-05 15:55:00,,0826.1,4.99,0.00,22.2,23.0,00.0,31.1,24.2,07.0,0000.0,0000.58,0001.16,0000.41
2022-02-05 15:56:00,,0826.1,5.01,0.00,22.3,22.8,00.0,31.1,24.2,07.1,0000.0,0000.58,0000.94,0000.42
2022-02-05 15:57:00,,0826.1,5.01,0.00,22.3,22.5,00.0,31.1,24.1,07.2,0000.0,0000.57,0000.91,0000.42
2022-02-05 15:58:00,,0826.1,4.99,0.00,22.2,22.3,00.0,31.1,24.0,07.2,0000.0,0000.55,0000.98,0000.42
2022-02-05 15:59:00,,0826.0,5.00,0.00,22.2,22.1,00.0,31.1,24.0,06.9,0000.0,0000.55,0001.10,0000.42
